| time (UTC) | temp F | wind direction | speed MPH | gust MPH | rain 1hr in | rain 24hr in | rain mn in | humidity % | barometer mb |
| 20260905094538 | 73 | 9 | 0.0 | 1.0 | 0.00 | 0.00 | 0.00 | 98 | 974.8 |
| 20260905093037 | 74 | 9 | 0.0 | 1.0 | 0.00 | 0.00 | 0.00 | 97 | 974.7 |
| 20260905091542 | 74 | 9 | 0.0 | 0.0 | 0.00 | 0.00 | 0.00 | 97 | 974.9 |
| 20260905090035 | 74 | 9 | 0.0 | 0.0 | 0.00 | 0.00 | 0.00 | 97 | 974.9 |
| 20260905084533 | 74 | 9 | 0.0 | 0.0 | 0.00 | 0.00 | 0.00 | 97 | 975.0 |
| 20260905083032 | 74 | 9 | 0.0 | 0.0 | 0.00 | 0.00 | 0.00 | 96 | 975.0 |
| 20260905081531 | 74 | 9 | 0.0 | 0.0 | 0.00 | 0.00 | 0.00 | 96 | 975.1 |
| 20260905080035 | 75 | 9 | 0.0 | 2.0 | 0.00 | 0.00 | 0.00 | 96 | 975.1 |
| 20260905074539 | 75 | 9 | 0.0 | 1.0 | 0.00 | 0.00 | 0.00 | 96 | 975.3 |
| 20260905073037 | 75 | 9 | 0.0 | 0.0 | 0.00 | 0.00 | 0.00 | 96 | 975.3 |
| 20260905071527 | 75 | 9 | 0.0 | 1.0 | 0.00 | 0.00 | 0.00 | 96 | 975.4 |
| 20260905070029 | 76 | 9 | 0.0 | 2.0 | 0.00 | 0.00 | 0.00 | 97 | 975.4 |
| 20260905064525 | 75 | 9 | 0.0 | 0.0 | 0.00 | 0.00 | 0.00 | 97 | 975.4 |
| 20260905063026 | 75 | 9 | 0.0 | 0.0 | 0.00 | 0.00 | 0.00 | 97 | 975.3 |
| 20260905061523 | 76 | 9 | 0.0 | 0.0 | 0.00 | 0.00 | 0.00 | 96 | 975.3 |
| 20260905060022 | 76 | 9 | 0.0 | 1.0 | 0.00 | 0.00 | 0.00 | 96 | 975.2 |
| 20260905054521 | 76 | 9 | 0.0 | 1.0 | 0.00 | 0.00 | 0.00 | 96 | 975.2 |
| 20260905053023 | 76 | 9 | 0.0 | 1.0 | 0.00 | 0.00 | 0.00 | 96 | 975.1 |
| 20260905051518 | 76 | 9 | 0.0 | 1.0 | 0.00 | 0.00 | 0.00 | 97 | 974.9 |
| 20260905050018 | 76 | 9 | 0.0 | 1.0 | 0.00 | 0.00 | 0.00 | 96 | 974.9 |
| 20260905044514 | 77 | 9 | 0.0 | 1.0 | 0.00 | 0.00 | 0.00 | 95 | 974.7 |
| 20260905043015 | 77 | 9 | 0.0 | 0.0 | 0.00 | 0.00 | 0.00 | 95 | 974.7 |
| 20260905041514 | 77 | 9 | 0.0 | 0.0 | 0.00 | 0.00 | 0.00 | 94 | 974.6 |
| 20260905040017 | 78 | 9 | 0.0 | 0.0 | 0.00 | 0.00 | 0.00 | 93 | 974.7 |
| 20260905034513 | 78 | 9 | 0.0 | 0.0 | 0.00 | 0.00 | 0.00 | 93 | 974.7 |
| 20260905033025 | 79 | 9 | 0.0 | 0.0 | 0.00 | 0.00 | 0.00 | 93 | 974.7 |
| 20260905031520 | 79 | 9 | 0.0 | 0.0 | 0.00 | 0.00 | 0.00 | 92 | 974.7 |
| 20260905030011 | 80 | 9 | 0.0 | 0.0 | 0.00 | 0.00 | 0.00 | 91 | 974.8 |
| 20260905024510 | 80 | 9 | 0.0 | 0.0 | 0.00 | 0.00 | 0.00 | 91 | 974.6 |
| 20260905023034 | 81 | 9 | 0.0 | 1.0 | 0.00 | 0.00 | 0.00 | 90 | 974.5 |
| 20260905021510 | 82 | 9 | 0.0 | 1.0 | 0.00 | 0.00 | 0.00 | 88 | 974.5 |
| 20260905020014 | 82 | 9 | 0.0 | 0.0 | 0.00 | 0.00 | 0.00 | 87 | 974.4 |
| 20260905014507 | 82 | 9 | 0.0 | 0.0 | 0.00 | 0.00 | 0.00 | 87 | 974.5 |
| 20260905013007 | 82 | 9 | 0.0 | 0.0 | 0.00 | 0.00 | 0.00 | 87 | 974.3 |
| 20260905011506 | 83 | 9 | 0.0 | 0.0 | 0.00 | 0.00 | 0.00 | 87 | 974.3 |
| 20260905010006 | 83 | 9 | 0.0 | 0.0 | 0.00 | 0.00 | 0.00 | 86 | 974.2 |
| 20260905004504 | 84 | 9 | 0.0 | 0.0 | 0.00 | 0.00 | 0.00 | 86 | 974.3 |
| 20260905003004 | 85 | 9 | 0.0 | 2.0 | 0.00 | 0.00 | 0.00 | 84 | 974.2 |
| 20260905001513 | 87 | 4 | 0.0 | 0.0 | 0.00 | 0.00 | 0.00 | 79 | 974.1 |
| 20260905000004 | 89 | 4 | 0.0 | 0.0 | 0.00 | 0.00 | 0.00 | 74 | 974.1 |
| 20260904234507 | 90 | 4 | 0.0 | 0.0 | 0.00 | 0.00 | 0.00 | 72 | 974.1 |
| 20260904233002 | 90 | 4 | 0.0 | 3.0 | 0.00 | 0.00 | 0.00 | 71 | 974.1 |
| 20260904231505 | 90 | 4 | 2.0 | 4.0 | 0.00 | 0.00 | 0.00 | 69 | 974.0 |
| 20260904230001 | 90 | 5 | 3.0 | 5.0 | 0.00 | 0.00 | 0.00 | 69 | 973.7 |
| 20260904224605 | 90 | 4 | 4.0 | 6.0 | 0.00 | 0.00 | 0.00 | 69 | 973.6 |
| 20260904223100 | 91 | 4 | 4.0 | 7.0 | 0.00 | 0.00 | 0.00 | 67 | 973.4 |
| 20260904221603 | 91 | 4 | 1.0 | 5.0 | 0.00 | 0.00 | 0.00 | 68 | 973.3 |
| 20260904220114 | 91 | 4 | 3.0 | 10.0 | 0.00 | 0.00 | 0.00 | 66 | 973.4 |
| 20260904214558 | 91 | 6 | 3.0 | 10.0 | 0.00 | 0.00 | 0.00 | 67 | 973.3 |
| 20260904213058 | 91 | 1 | 3.0 | 8.0 | 0.00 | 0.00 | 0.00 | 70 | 973.5 |
| 20260904211559 | 90 | 4 | 0.0 | 4.0 | 0.00 | 0.00 | 0.00 | 75 | 973.6 |
| 20260904204552 | 90 | 4 | 2.0 | 4.0 | 0.00 | 0.00 | 0.00 | 69 | 973.8 |
| 20260904203050 | 89 | 4 | 2.0 | 6.0 | 0.00 | 0.00 | 0.00 | 69 | 973.7 |
| 20260904201551 | 90 | 4 | 2.0 | 8.0 | 0.00 | 0.00 | 0.00 | 69 | 973.8 |
| 20260904200049 | 88 | 5 | 1.0 | 4.0 | 0.00 | 0.00 | 0.00 | 73 | 973.7 |
| 20260904194555 | 88 | 2 | 3.0 | 6.0 | 0.00 | 0.12 | 0.00 | 74 | 973.7 |
| 20260904193048 | 89 | 5 | 2.0 | 7.0 | 0.00 | 0.12 | 0.00 | 71 | 974.1 |
| 20260904191549 | 90 | 6 | 5.0 | 9.0 | 0.00 | 0.12 | 0.00 | 70 | 973.9 |
| 20260904190045 | 90 | 1 | 2.0 | 8.0 | 0.00 | 0.12 | 0.00 | 72 | 973.5 |
| 20260904184547 | 89 | 7 | 2.0 | 9.0 | 0.00 | 0.12 | 0.00 | 71 | 973.5 |
| 20260904183042 | 88 | 2 | 4.0 | 11.0 | 0.00 | 0.12 | 0.00 | 73 | 973.8 |
| 20260904181546 | 88 | 3 | 1.0 | 13.0 | 0.00 | 0.12 | 0.00 | 74 | 973.9 |
| 20260904180048 | 87 | 1 | 2.0 | 8.0 | 0.00 | 0.12 | 0.00 | 74 | 973.9 |
| 20260904174559 | 88 | 3 | 4.0 | 11.0 | 0.00 | 0.12 | 0.00 | 76 | 974.0 |
| 20260904173037 | 87 | 2 | 3.0 | 9.0 | 0.00 | 0.12 | 0.00 | 78 | 974.3 |
| 20260904171533 | 86 | 5 | 1.0 | 5.0 | 0.00 | 0.12 | 0.00 | 74 | 974.4 |
| 20260904170032 | 86 | 3 | 5.0 | 13.0 | 0.00 | 0.12 | 0.00 | 75 | 974.3 |
| 20260904164529 | 85 | 5 | 1.0 | 8.0 | 0.00 | 0.12 | 0.00 | 78 | 974.5 |
| 20260904163026 | 84 | 3 | 2.0 | 8.0 | 0.00 | 0.12 | 0.00 | 81 | 974.4 |
| 20260904161524 | 84 | 6 | 0.0 | 8.0 | 0.00 | 0.12 | 0.00 | 79 | 974.4 |
| 20260904160023 | 83 | 1 | 1.0 | 13.0 | 0.00 | 0.12 | 0.00 | 81 | 974.2 |
| 20260904154521 | 82 | 2 | 2.0 | 9.0 | 0.00 | 0.12 | 0.00 | 82 | 974.3 |
| 20260904153029 | 83 | 3 | 4.0 | 8.0 | 0.00 | 0.12 | 0.00 | 82 | 974.3 |
| 20260904151516 | 81 | 4 | 1.0 | 6.0 | 0.00 | 0.12 | 0.00 | 81 | 974.1 |
| 20260904150014 | 79 | 2 | 3.0 | 5.0 | 0.00 | 0.12 | 0.00 | 88 | 974.2 |
| 20260904144511 | 78 | 1 | 2.0 | 4.0 | 0.00 | 0.12 | 0.00 | 87 | 974.1 |
| 20260904143008 | 77 | 2 | 1.0 | 5.0 | 0.00 | 0.12 | 0.00 | 89 | 974.1 |
| 20260904141506 | 77 | 2 | 2.0 | 4.0 | 0.00 | 0.12 | 0.00 | 89 | 974.0 |
| 20260904140005 | 76 | 2 | 0.0 | 4.0 | 0.00 | 0.12 | 0.00 | 91 | 973.9 |
| 20260904134503 | 77 | 2 | 0.0 | 0.0 | 0.00 | 0.12 | 0.00 | 90 | 974.0 |
| 20260904133002 | 76 | 2 | 0.0 | 2.0 | 0.00 | 0.12 | 0.00 | 90 | 974.0 |
| 20260904131558 | 76 | 2 | 0.0 | 3.0 | 0.00 | 0.12 | 0.00 | 92 | 974.1 |
| 20260904130054 | 74 | 2 | 1.0 | 5.0 | 0.00 | 0.12 | 0.00 | 95 | 973.9 |
| 20260904124604 | 73 | 2 | 0.0 | 3.0 | 0.00 | 0.12 | 0.00 | 96 | 973.8 |
| 20260904123109 | 71 | 2 | 0.0 | 0.0 | 0.00 | 0.12 | 0.00 | 96 | 973.9 |
| 20260904121555 | 71 | 2 | 0.0 | 0.0 | 0.00 | 0.12 | 0.00 | 95 | 973.7 |
| 20260904120050 | 71 | 2 | 0.0 | 0.0 | 0.00 | 0.12 | 0.00 | 95 | 973.8 |
| 20260904114548 | 71 | 2 | 0.0 | 0.0 | 0.00 | 0.12 | 0.00 | 94 | 973.6 |
| 20260904113054 | 72 | 2 | 0.0 | 0.0 | 0.00 | 0.12 | 0.00 | 93 | 973.5 |
| 20260904111545 | 72 | 2 | 0.0 | 0.0 | 0.00 | 0.12 | 0.00 | 94 | 973.3 |
| 20260904110053 | 72 | 2 | 0.0 | 0.0 | 0.00 | 0.12 | 0.00 | 94 | 973.3 |
| 20260904104544 | 71 | 2 | 0.0 | 0.0 | 0.00 | 0.12 | 0.00 | 94 | 973.4 |
| 20260904103043 | 71 | 2 | 0.0 | 0.0 | 0.00 | 0.12 | 0.00 | 95 | 973.2 |
| 20260904101549 | 71 | 2 | 0.0 | 0.0 | 0.00 | 0.12 | 0.00 | 95 | 973.1 |
| 20260904100044 | 71 | 2 | 0.0 | 0.0 | 0.00 | 0.12 | 0.00 | 94 | 973.1 |